Location: Aufkirchen
(47.9603°N, 11.3653°E)
Time: 07:15:08
(UTC+01:00)

Transit 2A - Pass Details

Date: 01 December 2020
Orbit: 599 x 960 km, 66.7° (Epoch: 25 January)

Event Time Altitude Azimuth Distance (km) Brightness Sun altitude
Rises 16:57:54 0° 205° (SSW) 3,625 10.4 -5.8°
Reaches altitude 10° 17:00:30 10° 203° (SSW) 2,672 9.6 -6.2°
Maximum altitude 17:06:44 71° 121° (ESE) 975 6.5 -7.1°
Drops below altitude 10° 17:12:39 10° 38° (NE) 2,532 8.1 -8.0°
Enters shadow 17:13:33 - 38° (NE) 2,866 8.4 -8.2°
Sets 17:15:03 0° 37° (NE) 3,424 - -8.4°
